This demonstration page uses our WeatherBlox Daily Observations layout. Learn more.

Left ArrowRight Arrow

Hourly Observations for October 29, 2015

Temp ( °F °C ) Dew Point ( °F °C ) Humidity (%) Winds ( mph kmh ) Pressure ( in mb ) Visibility ( mi km ) Precip ( " mm )
12:51 am 00:51 Partly Cloudy 60 15.6 38 3.3 44 44 SE 5 7 29.76 1008 10 16 0.00 0.00
1:51 am 01:51 Cloudy 58 14.4 39 3.9 50 50 ESE 7 11 29.74 1007 10 16 0.00 0.00
2:51 am 02:51 Cloudy 62 16.7 36 2.2 38 38 E 12 19 29.71 1006 10 16 0.00 0.00
3:51 am 03:51 Cloudy 63 17.2 36 2.2 37 37 E 8 13 29.70 1006 10 16 0.00 0.00
4:51 am 04:51 Partly Cloudy 62 16.7 36 2.2 38 38 ESE 10 17 29.70 1006 10 16 0.00 0.00
5:51 am 05:51 Mostly Cloudy 62 16.7 37 2.8 40 40 E 10 17 29.71 1006 10 16 0.00 0.00
6:51 am 06:51 Sunny 61 16.1 40 4.4 46 46 ESE 9 15 29.72 1007 10 16 0.00 0.00
7:51 am 07:51 Sunny 64 17.8 40 4.4 41 41 E 18 30 29.73 1007 10 16 0.00 0.00
8:51 am 08:51 Cloudy 61 16.1 43 6.1 52 52 NNW 18 30 29.78 1009 10 16 0.00 0.00
9:51 am 09:51 Mostly Sunny 65 18.3 46 7.8 51 51 W 9 15 29.76 1008 10 16 0.00 0.00
10:51 am 10:51 Cloudy 63 17.2 45 7.2 52 52 W 14 22 29.78 1008 10 16 0.00 0.00
11:51 am 11:51 Cloudy with Light Rain 62 16.7 48 8.9 60 60 NW 8 13 29.76 1008 10 16 0.00 0.03
12:51 pm 12:51 Cloudy with Rain 61 16.1 52 11.1 72 72 WSW 15 24 29.75 1007 10 16 0.00 0.03
1:51 pm 13:51 Cloudy with Light Rain 58 14.4 53 11.7 84 84 SE 13 20 29.71 1006 10 16 0.06 1.52
2:51 pm 14:51 Cloudy with Rain 56 13.3 52 11.1 87 87 SE 14 22 29.71 1006 5 8 0.04 1.02
3:51 pm 15:51 Cloudy with Light Rain 55 12.8 52 11.1 90 90 ENE 9 15 29.69 1006 10 16 0.05 1.27
4:51 pm 16:51 Cloudy with Rain 56 13.3 53 11.7 90 90 ESE 15 24 29.64 1004 6 10 0.01 0.25
5:51 pm 17:51 Mostly Cloudy 55 12.8 52 11.1 90 90 WNW 18 30 29.68 1005 10 16 0.01 0.25
6:51 pm 18:51 Mostly Cloudy 53 11.7 50 10 89 89 WNW 15 24 29.70 1006 10 16 0.00 0.00
7:51 pm 19:51 Cloudy with Heavy Rain 52 11.1 51 10.6 97 97 WNW 20 31 29.71 1006 6 10 0.00 0.03
8:37 pm 20:37 Mostly Cloudy with Light Rain 52 11.1 51 10.6 97 97 NNW 5 7 29.77 1008 10 16 0.04 1.02
8:51 pm 20:51 Mostly Cloudy 52 11.1 51 10.6 97 97 Calm 29.72 1007 10 16 0.04 1.02
9:51 pm 21:51 Mostly Cloudy 52 11.1 51 10.6 97 97 SSE 9 15 29.71 1006 10 16 0.00 0.03
10:51 pm 22:51 Partly Cloudy 52 11.1 51 10.6 97 97 SE 10 17 29.68 1005 10 16 0.01 0.25
11:51 pm 23:51 Clear 51 10.6 50 10 96 96 SSE 9 15 29.67 1005 10 16 0.00 0.00

Powered by AerisWeather